This demonstration page uses our WeatherBlox Daily Observations layout. Learn more.

Left ArrowRight Arrow

Hourly Observations for May 20, 2017

Temp ( °F °C ) Dew Point ( °F °C ) Humidity (%) Winds ( mph kmh ) Pressure ( in mb ) Visibility ( mi km ) Precip ( " mm )
12:53 am 00:53 Clear 70 21.1 23 -5 17 17 N 23 37 29.71 1006 10 16 0.00 0.00
1:53 am 01:53 Clear 69 20.6 52 11.1 55 55 NNE 21 33 29.73 1007 10 16 0.00 0.00
2:53 am 02:53 Clear 67 19.4 51 10.6 57 57 NE 21 33 29.76 1008 10 16 0.00 0.00
3:53 am 03:53 Clear 63 17.2 49 9.4 60 60 N 15 24 29.80 1009 10 16 0.00 0.00
4:53 am 04:53 Clear 59 15 44 6.7 58 58 NNE 18 30 29.84 1010 10 16 0.00 0.00
5:53 am 05:53 Clear 57 13.9 43 6.1 60 60 NNE 13 20 29.87 1012 10 16 0.00 0.00
6:53 am 06:53 Sunny 56 13.3 42 5.6 60 60 NNE 10 17 29.90 1013 10 16 0.00 0.00
7:53 am 07:53 Cloudy 57 13.9 41 5 55 55 N 10 17 29.95 1014 10 16 0.00 0.00
8:53 am 08:53 Cloudy 59 15 40 4.4 49 49 N 12 19 29.98 1015 10 16 0.00 0.00
9:53 am 09:53 Cloudy 61 16.1 40 4.4 46 46 NE 12 19 29.99 1016 10 16 0.00 0.00
10:53 am 10:53 Cloudy 64 17.8 39 3.9 40 40 NNE 12 19 29.98 1015 10 16 0.00 0.00
11:53 am 11:53 Sunny 68 20 39 3.9 35 35 N 7 11 29.97 1015 10 16 0.00 0.00
12:12 pm 12:12 Mostly Sunny 70 21.1 40 4.4 34 34 NNE 10 17 29.94 1014 10 16 0.00 0.00
12:53 pm 12:53 Partly Cloudy 72 22.2 41 5 33 33 E 7 11 29.95 1014 10 16 0.00 0.00
1:53 pm 13:53 Sunny 76 24.4 42 5.6 30 30 VRB 7 11 29.91 1013 10 16 0.00 0.00
2:53 pm 14:53 Sunny 78 25.6 42 5.6 28 28 NNE 12 19 29.89 1012 10 16 0.00 0.00
3:43 pm 15:43 Partly Cloudy 78 25.6 41 5 27 27 Calm 29.83 1010 10 16 0.00 0.00
3:53 pm 15:53 Mostly Sunny 80 26.7 41 5 25 25 E 10 17 29.88 1012 10 16 0.00 0.00
4:53 pm 16:53 Sunny 81 27.2 39 3.9 22 22 VRB 5 7 29.85 1011 10 16 0.00 0.00
5:25 pm 17:25 Mostly Sunny 81 27.2 38 3.3 21 21 Calm 29.77 1008 10 16 0.00 0.00
5:53 pm 17:53 Sunny 82 27.8 39 3.9 22 22 ESE 12 19 29.84 1011 10 16 0.00 0.00
6:24 pm 18:24 Mostly Sunny 82 27.8 38 3.3 21 21 Calm 29.74 1007 10 16 0.00 0.00
6:53 pm 18:53 Mostly Sunny 82 27.8 39 3.9 22 22 SE 9 15 29.84 1010 10 16 0.00 0.00
7:53 pm 19:53 Mostly Sunny 80 26.7 39 3.9 23 23 E 14 22 29.84 1011 10 16 0.00 0.00
8:53 pm 20:53 Clear 77 25 42 5.6 29 29 E 10 17 29.88 1012 10 16 0.00 0.00
9:53 pm 21:53 Clear 73 22.8 44 6.7 35 35 E 9 15 29.90 1013 10 16 0.00 0.00
10:53 pm 22:53 Clear 71 21.7 46 7.8 41 41 E 12 19 29.91 1013 10 16 0.00 0.00
11:53 pm 23:53 Clear 70 21.1 49 9.4 47 47 E 13 20 29.92 1013 10 16 0.00 0.00

Powered by AerisWeather